KSM1-D

导读

KSM1-D卫星于2020年11月7日由卢森堡(LU)发射升空。作为卢森堡航天布局的重要组成部分,该卫星承担着特定空间任务,是欧洲微小卫星技术应用的实践案例,验证了小卫星平台技术与任务载荷的集成能力,为卢森堡开展空间观测、技术试验等空间活动提供支撑,也体现了欧洲小国参与航天开发的创新路径。

基本信息
目录编号:
46907
目录名称:
KSM1-D
国际标识:
2020-081C
轨道中心:
EARTH
卫星名称:
KSM1-D
卫星全名:
--
卫星状态:
在轨 (已飞行2075 天)
发射日期:
2020-11-07 UTC
国别 :
(LU)
星等 :
--
轨道信息
数据来源 国际轨道数据
星历时间: 2026-07-13T22:44:19+0800
17小时前
查看轨道信息
半长轴: 6868.655km
偏心率: 0.0002566
轨道倾角: 36.897°
近地点辐角 126.331°
升交点赤经 265.266°
平近点角 233.768°
近地点: 488.755km
远地点: 492.281km
周期: 94.421分钟
每日圈数: 15.250891
详细信息
使用方式:
暂无
2D轨道图
3D轨道图
轨道高度分析图
轨道倾角分析图
轨道综合分析图
查看轨道综合分析图